STARLINK-36931, 68000

Orbit data source: Space-Track

STARLINK-36931, 68000 is a payload satellite owned by SpaceX/Seattle (US) in LEO that was launched on Fri, 27 Feb 2026 UTC via an FALCON 9 launch vehicle from the Air Force Eastern Test Range (AFETR). Payload-class satellites include a variety of spacecraft equipped with specific instruments for various scientific and technological missions. These include communications satellites like Starlink; space stations such as the ISS; scientific satellites like the Hubble; Earth observation satellites from companies like Planet Labs, Umbra, and HawkEye 360; GPS; miniature CubeSats for education and research; and military/defense satellites.

Loading next visibility...
Identifier
68000, 2026-039Q
Orbit
LEO
Country
Flag of USUS
Related business
Manufacturer
SpaceX/Seattle
Mission
Operational Commercial Communications
Bus & Motor
STARLINK V2MO, Unknown motor
Mass
575 kg wet, ~530 kg dry
Launch date (UTC)
2026-02-27 (2 months ago)
Launch vehicle
FALCON 9
Launch site
Air Force Eastern Test Range (AFETR)
Object type
Payload
Rocket body
Debris
Shape & HBR
Box + 2 Pan, 17.7 m
Radar Cross Section
36.964 m²

Expand to show TLE details & history
Last TLE update: 8 hours ago

TLE from 8 hours ago
0 STARLINK-36931
1 68000U 26039Q   26119.46382590  .00013375  00000-0  49468-3 0  9993
2 68000  43.0049 121.7481 0001905 278.3203  81.7433 15.27579501  9478
Epoch: 2026-04-29T11:07Z
TLE epoch observation values (Epoch: 2026-04-29T11:07:54.557Z)
Latitude
-0.00001°
Longitude
97.34635°
Altitude
482.639 km
Speed
7.626 km/s
True Right ascension
08h 06m 59s
True Declination
0° 00' 00"
Sunlit
Object was in daylight at epoch
Visualization orbit readout
Latitude
Unknown
Longitude
Unknown
Altitude
Unknown
Speed
Unknown
Apparent Right ascension
Unknown
Apparent Declination
Unknown
Sunlit
N/A
Visualization observer readout
Local Sidereal Time
02:20:36
Azimuth
Unknown
Elevation
Unknown
Doppler factor
Unknown
Orbital elements
Apogee altitude
486.302 km
Perigee altitude
483.688 km
Semi-major axis
6,863.132 km
Eccentricity
0.00019
Inclination
43.0049°
RAAN
121.7481°
Arg. of periapsis
278.3203°
True anomaly
81.7649°
Mean anomaly
81.7433°
Eccentric anomaly
81.7541°
Mean motion
3.81733 °/min
Orbital period
94.31 mins
BSTAR
0.00049468
Loading maneuver chart data...
Computing Atmospheric mass density...
Loading historical data...
Loading historical data...
Loading historical data...
Loading historical data...
Loading historical data...
Loading historical data...
Loading historical data...

Documentation

Showing up to 5 results
|